{"data":{"norad_id":55109,"intl_designator":"2023-001DE","name":"ASTROCAST-0402","alt_names":[],"object_type":"PAYLOAD","status":"ACTIVE","operator":null,"country":"SWTZ","launch_date":"2023-01-03","launch_site_code":"AFETR","launch_vehicle":null,"mission":null,"orbit_class":"UNKNOWN","rcs_meters":null,"size_class":null,"mass_kg":null,"dimensions":null,"purposes":[],"wikipedia_slug":null,"has_3d_model":false,"image_url":null,"decayed_at":null,"tle_current":{"epoch":"2026-09-21T19:08:18.377088Z","epoch_age_seconds":56184,"freshness":"FRESH","line1":"1 55109U 23001DE  26264.79743492  .00007590  00000+0  25808-3 0  9997","line2":"2 55109  97.5571 359.5802 0003282 242.8713 117.2193 15.30742049159307","mean_motion":15.30742049,"eccentricity":0.0003282,"inclination_deg":97.5571,"raan_deg":359.5802,"arg_perigee_deg":242.8713,"mean_anomaly_deg":117.2193,"bstar":0.00025808,"rev_number":15930,"period_min":94.072022189547,"perigee_km":471.34834729435,"apogee_km":475.84582554868,"semimajor_km":6851.7340864215,"source":"CELESTRAK","updated_at":"2026-09-22T09:00:25.271867Z"}}}